Location: Rancho Del Sol Observatory
(38.7214°N, 120.6350°W)
Time: 15:03:20
(UTC-08:00)

A-11 Canister half - Pass Details

Date: 02 February 2020
Orbit: 1517 x 1683 km, 47.2° (Epoch: 26 February)

Event Time Altitude Azimuth Distance (km) Brightness Sun altitude
Rises 21:08:08 0° 236° (SW) 4,818 12.0 -43.5°
Reaches altitude 10° 21:11:16 10° 236° (SW) 3,811 11.4 -44.1°
Enters shadow 21:16:42 39° 236° (SW) 2,204 9.8 -45.1°
